Regional Weather Roundup
Issued by NWS

Home | Current Version | Previous Version | Text Only | Print | Product List | Glossary On
Versions: 1 2 3 4 5 6 7 8 9 10 11 12 13 14 15 16 17 18 19 20 21 22 23 24 25 26 27 28 29 30 31 32 33 34 35 36 37 38 39 40 41 42 43 44 45 46 47 48 49 50
000
ASHW40 PHFO 261232
RWRHI

WEATHER ROUNDUP FOR HAWAII
NATIONAL WEATHER SERVICE HONOLULU HI
200 AM HST MON SEP 26 2016

THIS IS AN AUTOMATED REPORT THAT HAS NOT BEEN QUALITY CONTROLLED.

NOTE..."FAIR" INDICATES FEW OR NO CLOUDS BELOW 12,000 FEET WITH NO
SIGNIFICANT WEATHER AND/OR OBSTRUCTIONS TO VISIBILITY.

* - THESE SITES REPORT LIMITED FIELDS

HIZ001>004-261300-
KAUAI-NIIHAU-

CITY           SKY/WX    TMP DP  RH WIND       PRES   REMARKS
LIHUE APT      LGT RAIN  78  70  76 NE18      30.05F
PORT ALLEN*      N/A     77 N/A N/A NE14G21     N/A
POIPU*           N/A     77 N/A N/A NE9G18      N/A
PRINCEVILLE*     N/A     73 N/A N/A SE5         N/A
KOKOLE POINT*  NOT AVBL
MOLOAA DAIRY*    N/A     75  70  83 E3G12       N/A
WAIMEA HTS*    NOT AVBL
PUU OPAE*      NOT AVBL
PUU LUA*       NOT AVBL
MAKAHA RIDGE*    N/A    N/A N/A N/A CALM        N/A
$$

HIZ005>011-261300-
OAHU-

CITY           SKY/WX    TMP DP  RH WIND       PRES   REMARKS
HONOLULU       MOCLDY    76  68  76 E17G23    30.02S
KALAELOA       PTCLDY    75  67  76 VRB3      30.03F
KANEOHE MCB    MOCLDY    78  70  76 NE14      30.00F
WHEELER FIELD  DRIZZLE   70  68  94 NW5       30.02F
BELLOWS*         N/A    N/A N/A N/A NE17        N/A
WHEELER*       NOT AVBL
WAIANAE HARBOR NOT AVBL
DILLINGHAM*      N/A     72  64  78 MISG        N/A
KAHUKU TRN*      N/A     75  70  83 W10G21      N/A
KAWAILOA*        N/A     72  66  83 NE9G17      N/A
KII*             N/A     79  70  73 NE16G22     N/A
MAKUA RANGE*     N/A     88  79  74 W8G14       N/A  HX 102
OAHU FOREST NW NOT AVBL
SCHOFIELD BRK*   N/A     82  79  89 MISG        N/A  HX  93
SCHOFIELD S*   NOT AVBL
WAIANAE VLY*   NOT AVBL
KUAOKALA*      NOT AVBL
HONOULIUULI*   NOT AVBL
MOKUOLOE IS*   NOT AVBL
PALEHUA*       NOT AVBL
WAIAWA PHB*    NOT AVBL
$$

HIZ012>013-261300-
MOLOKAI-

CITY           SKY/WX    TMP DP  RH WIND       PRES   REMARKS
MOLOKAI AIRPT  LGT RAIN  76  71  85 NE8       30.02F
KALAUPAPA      NOT AVBL
MAKAPULAPAI*     N/A     75  73  94 E15G25      N/A
MOLOKAI 1*     NOT AVBL
PUU ALII*        N/A     61  61 100 N3G20       N/A
$$

HIZ016-261300-
KAHOOLAWE-

CITY           SKY/WX    TMP DP  RH WIND       PRES   REMARKS
KAHOOLAWE*       N/A     72 N/A N/A NE1         N/A
HAKIOAWA*        N/A     73  69  87 MISG      30.42F
HONOKANAIA*      N/A     75  67  75 NE5G12    29.94F
KANELOA*         N/A     75  68  78 E14G21    30.06F
KEALIALALO*    NOT AVBL
LUA MAKIKA*    NOT AVBL
$$

HIZ014>015-261300-
LANAI-

CITY           SKY/WX    TMP DP  RH WIND       PRES   REMARKS
LANAI CITY     FAIR      71  67  87 NE12      30.06F
LANAI 1*       NOT AVBL
$$

HIZ017>028-261300-
MAUI-

CITY           SKY/WX    TMP DP  RH WIND       PRES   REMARKS
KAHULUI        CLEAR     76  70  82 NE15G21   30.00F
KAPALUA-W MAUI NOT AVBL
HANA AIRPORT   NOT AVBL
HANA*            N/A     73 N/A N/A S3          N/A
HALEAKALA SUMM   N/A     45  25  45 E24         N/A
MAALAEA BAY*   NOT AVBL
HALEAKALA*     NOT AVBL
KAUPO GAP*     NOT AVBL
KULA 1*          N/A     50  40  67 NE3G9       N/A
$$

HIZ023>026-261300-
BIG ISLAND OF HAWAII COAST AND LOWER SLOPES-

CITY           SKY/WX    TMP DP  RH WIND       PRES   REMARKS
KAILUA KONA    MOCLDY    77  73  87 SE10      29.96S
HILO           PTCLDY    69  64  84 SW7       30.02F
HONOKAA*         N/A     70 N/A N/A VRB1        N/A
KAWAIHAE MWT*    N/A     77 N/A N/A NE7         N/A
KAWAIHAE*        N/A     79 N/A N/A N1        29.96S
SOUTH POINT*     N/A     70 N/A N/A N12         N/A
UPOLU AIRPORT* NOT AVBL
KAMUELA*       NOT AVBL
HAKALAU*         N/A     43  39  87 SW5         N/A
KALOKO-HONOKO*   N/A     75  70  83 NE3G9     29.95F
PALI 2*          N/A     64  61  88 SW12G17     N/A
KEALAKOMO*       N/A     79  63  57 VRB16G26    N/A
KAUPULEHU*     NOT AVBL
KAPAPALA*        N/A     61  58  89 VRB3        N/A
LOWER KAHUKU*    N/A     57  54  88 N2G9        N/A
PUHE CS*         N/A    N/A N/A N/A NE3G9       N/A
PUHO CS*         N/A     77  64  63 NE2         N/A
PTA KEAMUKU*     N/A     55  46  71 CALM        N/A
WAIKOLOA*      NOT AVBL
$$

HIZ027>028-261300-
BIG ISLAND OF HAWAII INTERIOR AND SUMMMITS-

CITY           SKY/WX    TMP DP  RH WIND       PRES   REMARKS
BRADSHAW FIELD CLOUDY    47  38  70 SE5       30.31F
MK VISITOR CEN   N/A     52  10  19 VRB7        N/A
MAUNA KEA*       N/A     36  -6  17 NE17        N/A  WCI  25
MAUNA LOA*       N/A     43   0  16 MISG        N/A
MAUNA LOA 1*   NOT AVBL
PTA KIPUKA*      N/A     50  46  87 SE6G13      N/A
PTA RANGE 17*    N/A     57  45  62 E12G22      N/A
PTA WEST*        N/A     77  72  83 SE8         N/A
NENE CABIN*      N/A     46  37  71 NE6G12      N/A
AHUMOA*        NOT AVBL
PTA PORTABLE*  NOT AVBL
PUU MALI*        N/A    N/A N/A N/A SE12G22     N/A
$$

HIC003-261300-
NORTHWEST ISLANDS-

CITY           SKY/WX    TMP DP  RH WIND       PRES   REMARKS
MIDWAY ISLAND  PTCLDY    77  72  83 E9        30.17F
MIDWAY NOS*      N/A     79 N/A N/A MISG      30.16F
FRENCH FRIGATE NOT AVBL
$$

PHZ110>124-180-261300-
BUOY REPORTS

STATION/POSITION TIME  TEMP    WIND        PRES    WAVE   SWELL
                       AIR SEA DIR/SP/G            HT/PER HT/DIR
                 (UTC) (F)     (DEG/KT/KT) (MB)    (FT/S) (FT/D)
BUOY 51001       NOT AVBL
BUOY 51101       1150   77 80   70/  8/ 10 1018.9F   7/10   7/320
BUOY 51100       NOT AVBL
BUOY 51002       NOT AVBL
BUOY 51003       1150   81 82   60/ 16/ 17 1015.0F   6/ 8   3/ 80
BUOY 51004       1150   81 81   50/ 17/ 19 1013.3F   6/ 9   3/ 70
BARBERS PT BUOY  NOT AVBL
WAIMEA BAY BUOY  1204      81                N/A     4/ 9   2/350
KAILUA BAY BUOY  1204      81                N/A     5/ 8   2/ 20
LANAI BUOY       1115      81                N/A     2/14   2/200
BARBERS PT 2     NOT AVBL
PAUWELA MAUI     1209      80                N/A     6/ 9   2
HILO             1212      80                N/A     5/ 8   2
KANEOHE BAY BUOY 1206      80                N/A     5/ 8   2/ 10
HANALEI KAUAI    NOT AVBL
KAHULUI HARBOR   1200   77 81   60/  6/ 18 1015.8F
HONOLULU HARBOR  1200   78 82   50/  4/  9 1017.1F
KILO NALU        NOT AVBL
HILO HARBOR      1200   72 80  200/  4/  6 1016.1F
MOKUOLOE         1100   79 83   60/ 12/ 15 1017.2F
NAWILIWILI       1200   77 82   50/ 11/ 14 1017.4F
WHOTS BUOY       NOT AVBL
BUOY 51028       NOT AVBL
$$

......................KEY........................................
  SKY/WX - SKY CONDITIONS/PRESENT WEATHER
  TMP    - TEMPERATURE IN FAHRENHEIT
  DWPT   - DEWPOINT IN FAHRENHEIT
  RH     - RELATIVE HUMIDITY IN PERCENT
  WIND   - DIRECTION AND SPEED /MPH FOR ISLANDS...KTS FOR BUOYS/
  PRES   - MEAN SEA LEVEL PRESSURE IN INCHES OF HG
  VSB    - VISIBILITY IN MILES
  HX     - HEAT INDEX
  WCI    - WIND CHILL INDEX
  VRB    - VARIABLE WIND DIRECTION
  N/A    - NOT AVAILABLE



USA.gov is the U.S. government's official web portal to all federal, state and local government web resources and services.